owner,sensor,date,latitude,longitude,vertical_datum,mass_concentration_of_oxygen_in_sea_water,qcFlag 
DISL,ioos:station:DISL:MHPA:1,2019-09-01T00:00:00Z,30.6671,-87.9365,1.266,6.82,11111222 
DISL,ioos:station:DISL:MHPA:1,2019-09-01T01:00:00Z,30.6671,-87.9365,1.207,6.19,11111222 
DISL,ioos:station:DISL:MHPA:1,2019-09-01T02:00:00Z,30.6671,-87.9365,1.152,6.05,11111222 
DISL,ioos:station:DISL:MHPA:1,2019-09-01T03:00:00Z,30.6671,-87.9365,1.135,5.84,11111222 
DISL,ioos:station:DISL:MHPA:1,2019-09-01T04:00:00Z,30.6671,-87.9365,1.103,5.96,11111222 
DISL,ioos:station:DISL:MHPA:1,2019-09-01T05:00:00Z,30.6671,-87.9365,1.097,5.82,11111222 
DISL,ioos:station:DISL:MHPA:1,2019-09-01T06:00:00Z,30.6671,-87.9365,1.081,6.28,11111222 
DISL,ioos:station:DISL:MHPA:1,2019-09-01T07:00:00Z,30.6671,-87.9365,1.129,6.55,11111222 
DISL,ioos:station:DISL:MHPA:1,2019-09-01T08:00:00Z,30.6671,-87.9365,1.208,6.2,11111222 
DISL,ioos:station:DISL:MHPA:1,2019-09-01T09:00:00Z,30.6671,-87.9365,1.242,5.19,11111222 
DISL,ioos:station:DISL:MHPA:1,2019-09-01T10:00:00Z,30.6671,-87.9365,1.273,4.36,11111222 
DISL,ioos:station:DISL:MHPA:1,2019-09-01T11:00:00Z,30.6671,-87.9365,1.286,4.91,11111222 
DISL,ioos:station:DISL:MHPA:1,2019-09-01T12:00:00Z,30.6671,-87.9365,1.294,5.01,11111222 
DISL,ioos:station:DISL:MHPA:1,2019-09-01T13:00:00Z,30.6671,-87.9365,1.294,5.05,11111222 
DISL,ioos:station:DISL:MHPA:1,2019-09-01T14:00:00Z,30.6671,-87.9365,1.295,5.04,11111222 
DISL,ioos:station:DISL:MHPA:1,2019-09-01T15:00:00Z,30.6671,-87.9365,1.311,6.03,11111222 
DISL,ioos:station:DISL:MHPA:1,2019-09-01T16:00:00Z,30.6671,-87.9365,1.331,5.94,11111222 
DISL,ioos:station:DISL:MHPA:1,2019-09-01T17:00:00Z,30.6671,-87.9365,1.381,6.53,11111222 
DISL,ioos:station:DISL:MHPA:1,2019-09-01T18:00:00Z,30.6671,-87.9365,1.421,7.32,11111222 
DISL,ioos:station:DISL:MHPA:1,2019-09-01T19:00:00Z,30.6671,-87.9365,1.501,6.89,11111222 
DISL,ioos:station:DISL:MHPA:1,2019-09-01T20:00:00Z,30.6671,-87.9365,1.485,6.33,11111222 
DISL,ioos:station:DISL:MHPA:1,2019-09-01T21:00:00Z,30.6671,-87.9365,1.471,5.59,11111222 
DISL,ioos:station:DISL:MHPA:1,2019-09-01T22:00:00Z,30.6671,-87.9365,1.453,5.51,11111222 
DISL,ioos:station:DISL:MHPA:1,2019-09-01T23:00:00Z,30.6671,-87.9365,1.403,6.67,11111222 
DISL,ioos:station:DISL:MHPA:1,2019-09-02T00:00:00Z,30.6671,-87.9365,1.343,6.68,11111222 
DISL,ioos:station:DISL:MHPA:1,2019-09-02T01:00:00Z,30.6671,-87.9365,1.275,7.38,11111222 
DISL,ioos:station:DISL:MHPA:1,2019-09-02T02:00:00Z,30.6671,-87.9365,1.21,5.21,11111222 
DISL,ioos:station:DISL:MHPA:1,2019-09-02T03:00:00Z,30.6671,-87.9365,1.169,5.13,11111222 
DISL,ioos:station:DISL:MHPA:1,2019-09-02T04:00:00Z,30.6671,-87.9365,1.147,5.96,11111222 
DISL,ioos:station:DISL:MHPA:1,2019-09-02T05:00:00Z,30.6671,-87.9365,1.15,4.85,11111222 
DISL,ioos:station:DISL:MHPA:1,2019-09-02T06:00:00Z,30.6671,-87.9365,1.165,5.33,11111222 
DISL,ioos:station:DISL:MHPA:1,2019-09-02T07:00:00Z,30.6671,-87.9365,1.172,5.44,11111222 
DISL,ioos:station:DISL:MHPA:1,2019-09-02T08:00:00Z,30.6671,-87.9365,1.185,5.06,11111222 
DISL,ioos:station:DISL:MHPA:1,2019-09-02T09:00:00Z,30.6671,-87.9365,1.247,4.9,11111222 
DISL,ioos:station:DISL:MHPA:1,2019-09-02T10:00:00Z,30.6671,-87.9365,1.278,3.95,11111222 
DISL,ioos:station:DISL:MHPA:1,2019-09-02T11:00:00Z,30.6671,-87.9365,1.291,5.22,11111222 
DISL,ioos:station:DISL:MHPA:1,2019-09-02T12:00:00Z,30.6671,-87.9365,1.239,5.1,11111222 
DISL,ioos:station:DISL:MHPA:1,2019-09-02T13:00:00Z,30.6671,-87.9365,1.195,5.2,11111222 
DISL,ioos:station:DISL:MHPA:1,2019-09-02T16:00:00Z,30.6671,-87.9365,1.159,6.68,11111222 
DISL,ioos:station:DISL:MHPA:1,2019-09-02T17:00:00Z,30.6671,-87.9365,1.146,7.0,11111222 
DISL,ioos:station:DISL:MHPA:1,2019-09-02T18:00:00Z,30.6671,-87.9365,1.208,6.94,11111222 
DISL,ioos:station:DISL:MHPA:1,2019-09-02T19:00:00Z,30.6671,-87.9365,1.34,7.62,11111222 
DISL,ioos:station:DISL:MHPA:1,2019-09-02T20:00:00Z,30.6671,-87.9365,1.372,6.79,11111222 
DISL,ioos:station:DISL:MHPA:1,2019-09-02T21:00:00Z,30.6671,-87.9365,1.281,5.31,11111222 
DISL,ioos:station:DISL:MHPA:1,2019-09-02T22:00:00Z,30.6671,-87.9365,1.357,5.93,11111222 
DISL,ioos:station:DISL:MHPA:1,2019-09-02T23:00:00Z,30.6671,-87.9365,1.267,6.96,11111222 
DISL,ioos:station:DISL:MHPA:1,2019-09-03T00:00:00Z,30.6671,-87.9365,1.244,6.52,11111222 
DISL,ioos:station:DISL:MHPA:1,2019-09-03T01:00:00Z,30.6671,-87.9365,1.202,6.7,11111222 
DISL,ioos:station:DISL:MHPA:1,2019-09-03T02:00:00Z,30.6671,-87.9365,1.186,6.77,11111222 
DISL,ioos:station:DISL:MHPA:1,2019-09-03T03:00:00Z,30.6671,-87.9365,1.158,5.33,11111222 
DISL,ioos:station:DISL:MHPA:1,2019-09-03T04:00:00Z,30.6671,-87.9365,1.143,5.87,11111222 
DISL,ioos:station:DISL:MHPA:1,2019-09-03T05:00:00Z,30.6671,-87.9365,1.143,5.49,11111222 
DISL,ioos:station:DISL:MHPA:1,2019-09-03T06:00:00Z,30.6671,-87.9365,1.182,5.4,11111222 
DISL,ioos:station:DISL:MHPA:1,2019-09-03T07:00:00Z,30.6671,-87.9365,1.226,6.02,11111222 
DISL,ioos:station:DISL:MHPA:1,2019-09-03T08:00:00Z,30.6671,-87.9365,1.256,5.94,11111222 
DISL,ioos:station:DISL:MHPA:1,2019-09-03T09:00:00Z,30.6671,-87.9365,1.261,5.82,11111222 
DISL,ioos:station:DISL:MHPA:1,2019-09-03T10:00:00Z,30.6671,-87.9365,1.286,5.37,11111222 
DISL,ioos:station:DISL:MHPA:1,2019-09-03T11:00:00Z,30.6671,-87.9365,1.256,5.65,11111222 
DISL,ioos:station:DISL:MHPA:1,2019-09-03T12:00:00Z,30.6671,-87.9365,1.248,5.48,11111222 
DISL,ioos:station:DISL:MHPA:1,2019-09-03T13:00:00Z,30.6671,-87.9365,1.17,5.1,11111222 
DISL,ioos:station:DISL:MHPA:1,2019-09-03T14:00:00Z,30.6671,-87.9365,1.137,5.31,11111222 
DISL,ioos:station:DISL:MHPA:1,2019-09-03T15:00:00Z,30.6671,-87.9365,1.103,4.38,11111222 
DISL,ioos:station:DISL:MHPA:1,2019-09-03T16:00:00Z,30.6671,-87.9365,1.005,7.4,11111222 
DISL,ioos:station:DISL:MHPA:1,2019-09-03T17:00:00Z,30.6671,-87.9365,1.005,5.08,11111222 
DISL,ioos:station:DISL:MHPA:1,2019-09-03T18:00:00Z,30.6671,-87.9365,0.972,7.32,11111222 
DISL,ioos:station:DISL:MHPA:1,2019-09-03T19:00:00Z,30.6671,-87.9365,1.01,8.33,11111222 
DISL,ioos:station:DISL:MHPA:1,2019-09-03T20:00:00Z,30.6671,-87.9365,1.049,8.56,11111222 
DISL,ioos:station:DISL:MHPA:1,2019-09-03T21:00:00Z,30.6671,-87.9365,1.099,6.16,11111222 
DISL,ioos:station:DISL:MHPA:1,2019-09-03T22:00:00Z,30.6671,-87.9365,1.118,8.47,11111222 
DISL,ioos:station:DISL:MHPA:1,2019-09-03T23:00:00Z,30.6671,-87.9365,1.131,8.84,11111222 
DISL,ioos:station:DISL:MHPA:1,2019-09-04T00:00:00Z,30.6671,-87.9365,1.172,7.87,11111222 
DISL,ioos:station:DISL:MHPA:1,2019-09-04T01:00:00Z,30.6671,-87.9365,1.171,7.16,11111222 
DISL,ioos:station:DISL:MHPA:1,2019-09-04T02:00:00Z,30.6671,-87.9365,1.181,6.76,11111222 
DISL,ioos:station:DISL:MHPA:1,2019-09-04T03:00:00Z,30.6671,-87.9365,1.192,6.42,11111222 
DISL,ioos:station:DISL:MHPA:1,2019-09-04T04:00:00Z,30.6671,-87.9365,1.212,6.39,11111222 
DISL,ioos:station:DISL:MHPA:1,2019-09-04T05:00:00Z,30.6671,-87.9365,1.238,5.92,11111222 
DISL,ioos:station:DISL:MHPA:1,2019-09-04T06:00:00Z,30.6671,-87.9365,1.27,6.25,11111222 
DISL,ioos:station:DISL:MHPA:1,2019-09-04T07:00:00Z,30.6671,-87.9365,1.286,6.07,11111222 
DISL,ioos:station:DISL:MHPA:1,2019-09-04T08:00:00Z,30.6671,-87.9365,1.285,5.68,11111222 
DISL,ioos:station:DISL:MHPA:1,2019-09-04T09:00:00Z,30.6671,-87.9365,1.292,4.78,11111222 
DISL,ioos:station:DISL:MHPA:1,2019-09-04T10:00:00Z,30.6671,-87.9365,1.277,5.09,11111222 
DISL,ioos:station:DISL:MHPA:1,2019-09-04T11:00:00Z,30.6671,-87.9365,1.256,4.52,11111222 
DISL,ioos:station:DISL:MHPA:1,2019-09-04T12:00:00Z,30.6671,-87.9365,1.198,4.81,11111222 
DISL,ioos:station:DISL:MHPA:1,2019-09-04T13:00:00Z,30.6671,-87.9365,1.136,4.57,11111222 
DISL,ioos:station:DISL:MHPA:1,2019-09-04T14:00:00Z,30.6671,-87.9365,1.086,4.49,11111222 
DISL,ioos:station:DISL:MHPA:1,2019-09-04T15:00:00Z,30.6671,-87.9365,1.034,5.13,11111222 
DISL,ioos:station:DISL:MHPA:1,2019-09-04T16:00:00Z,30.6671,-87.9365,0.949,5.52,11111222 
DISL,ioos:station:DISL:MHPA:1,2019-09-04T17:00:00Z,30.6671,-87.9365,0.924,6.32,11111222 
DISL,ioos:station:DISL:MHPA:1,2019-09-04T18:00:00Z,30.6671,-87.9365,0.893,5.52,11111222 
DISL,ioos:station:DISL:MHPA:1,2019-09-04T19:00:00Z,30.6671,-87.9365,0.827,4.43,11111222 
DISL,ioos:station:DISL:MHPA:1,2019-09-04T20:00:00Z,30.6671,-87.9365,0.836,6.42,11111222 
DISL,ioos:station:DISL:MHPA:1,2019-09-04T21:00:00Z,30.6671,-87.9365,0.814,7.09,11111222 
DISL,ioos:station:DISL:MHPA:1,2019-09-04T22:00:00Z,30.6671,-87.9365,0.861,7.8,11111222 
DISL,ioos:station:DISL:MHPA:1,2019-09-04T23:00:00Z,30.6671,-87.9365,0.853,6.56,11111222 
DISL,ioos:station:DISL:MHPA:1,2019-09-05T00:00:00Z,30.6671,-87.9365,0.918,8.2,11111222 
DISL,ioos:station:DISL:MHPA:1,2019-09-05T01:00:00Z,30.6671,-87.9365,0.95,8.73,11111222 
DISL,ioos:station:DISL:MHPA:1,2019-09-05T02:00:00Z,30.6671,-87.9365,0.998,6.43,11111222 
DISL,ioos:station:DISL:MHPA:1,2019-09-05T03:00:00Z,30.6671,-87.9365,1.069,6.46,11111222 
DISL,ioos:station:DISL:MHPA:1,2019-09-05T04:00:00Z,30.6671,-87.9365,1.094,5.56,11111222 
DISL,ioos:station:DISL:MHPA:1,2019-09-05T05:00:00Z,30.6671,-87.9365,1.121,6.06,11111222 
DISL,ioos:station:DISL:MHPA:1,2019-09-05T06:00:00Z,30.6671,-87.9365,1.16,5.86,11111222 
DISL,ioos:station:DISL:MHPA:1,2019-09-05T07:00:00Z,30.6671,-87.9365,1.211,5.52,11111222 
DISL,ioos:station:DISL:MHPA:1,2019-09-05T08:00:00Z,30.6671,-87.9365,1.241,5.27,11111222 
DISL,ioos:station:DISL:MHPA:1,2019-09-05T09:00:00Z,30.6671,-87.9365,1.245,5.63,11111222 
DISL,ioos:station:DISL:MHPA:1,2019-09-05T10:00:00Z,30.6671,-87.9365,1.222,4.78,11111222 
DISL,ioos:station:DISL:MHPA:1,2019-09-05T11:00:00Z,30.6671,-87.9365,1.192,4.74,11111222 
DISL,ioos:station:DISL:MHPA:1,2019-09-05T12:00:00Z,30.6671,-87.9365,1.149,4.35,11111222 
DISL,ioos:station:DISL:MHPA:1,2019-09-05T13:00:00Z,30.6671,-87.9365,1.081,4.62,11111222 
DISL,ioos:station:DISL:MHPA:1,2019-09-05T14:00:00Z,30.6671,-87.9365,1.044,4.04,11111222 
DISL,ioos:station:DISL:MHPA:1,2019-09-05T15:00:00Z,30.6671,-87.9365,0.995,4.53,11111222 
DISL,ioos:station:DISL:MHPA:1,2019-09-05T16:00:00Z,30.6671,-87.9365,0.903,5.7,11111222 
DISL,ioos:station:DISL:MHPA:1,2019-09-05T17:00:00Z,30.6671,-87.9365,0.895,4.83,11111222 
DISL,ioos:station:DISL:MHPA:1,2019-09-05T18:00:00Z,30.6671,-87.9365,0.935,4.95,11111222 
DISL,ioos:station:DISL:MHPA:1,2019-09-05T19:00:00Z,30.6671,-87.9365,0.808,7.22,11111222 
DISL,ioos:station:DISL:MHPA:1,2019-09-05T20:00:00Z,30.6671,-87.9365,0.782,8.14,11111222 
DISL,ioos:station:DISL:MHPA:1,2019-09-05T21:00:00Z,30.6671,-87.9365,0.73,6.25,11111222 
DISL,ioos:station:DISL:MHPA:1,2019-09-05T22:00:00Z,30.6671,-87.9365,0.742,6.22,11111222 
DISL,ioos:station:DISL:MHPA:1,2019-09-05T23:00:00Z,30.6671,-87.9365,0.75,6.3,11111222 
DISL,ioos:station:DISL:MHPA:1,2019-09-06T00:00:00Z,30.6671,-87.9365,0.79,6.47,11111222 
DISL,ioos:station:DISL:MHPA:1,2019-09-06T01:00:00Z,30.6671,-87.9365,0.81,6.98,11111222 
DISL,ioos:station:DISL:MHPA:1,2019-09-06T02:00:00Z,30.6671,-87.9365,0.875,6.42,11111222 
DISL,ioos:station:DISL:MHPA:1,2019-09-06T03:00:00Z,30.6671,-87.9365,0.912,6.41,11111222 
DISL,ioos:station:DISL:MHPA:1,2019-09-06T04:00:00Z,30.6671,-87.9365,0.952,6.29,11111222 
DISL,ioos:station:DISL:MHPA:1,2019-09-06T05:00:00Z,30.6671,-87.9365,0.96,6.41,11111222 
DISL,ioos:station:DISL:MHPA:1,2019-09-06T06:00:00Z,30.6671,-87.9365,0.99,5.5,11111222 
DISL,ioos:station:DISL:MHPA:1,2019-09-06T09:00:00Z,30.6671,-87.9365,1.113,5.61,11111222 
DISL,ioos:station:DISL:MHPA:1,2019-09-06T10:00:00Z,30.6671,-87.9365,1.131,5.61,11111222 
DISL,ioos:station:DISL:MHPA:1,2019-09-06T11:00:00Z,30.6671,-87.9365,1.148,5.65,11111222 
DISL,ioos:station:DISL:MHPA:1,2019-09-06T12:00:00Z,30.6671,-87.9365,1.113,5.31,11111222 
DISL,ioos:station:DISL:MHPA:1,2019-09-06T13:00:00Z,30.6671,-87.9365,1.05,4.49,11111222 
DISL,ioos:station:DISL:MHPA:1,2019-09-06T14:00:00Z,30.6671,-87.9365,1.011,3.64,11111222 
DISL,ioos:station:DISL:MHPA:1,2019-09-06T15:00:00Z,30.6671,-87.9365,0.953,4.1,11111222 
DISL,ioos:station:DISL:MHPA:1,2019-09-06T16:00:00Z,30.6671,-87.9365,0.887,6.12,11111222 
DISL,ioos:station:DISL:MHPA:1,2019-09-06T17:00:00Z,30.6671,-87.9365,0.865,5.51,11111222 
DISL,ioos:station:DISL:MHPA:1,2019-09-06T18:00:00Z,30.6671,-87.9365,0.815,5.23,11111222 
DISL,ioos:station:DISL:MHPA:1,2019-09-06T19:00:00Z,30.6671,-87.9365,0.757,5.26,11111222 
DISL,ioos:station:DISL:MHPA:1,2019-09-06T20:00:00Z,30.6671,-87.9365,0.71,7.12,11111222 
DISL,ioos:station:DISL:MHPA:1,2019-09-06T21:00:00Z,30.6671,-87.9365,0.655,7.1,11111222 
DISL,ioos:station:DISL:MHPA:1,2019-09-06T22:00:00Z,30.6671,-87.9365,0.641,7.99,11111222 
DISL,ioos:station:DISL:MHPA:1,2019-09-06T23:00:00Z,30.6671,-87.9365,0.629,8.38,11111222 
DISL,ioos:station:DISL:MHPA:1,2019-09-07T00:00:00Z,30.6671,-87.9365,0.682,8.3,11111222 
DISL,ioos:station:DISL:MHPA:1,2019-09-07T01:00:00Z,30.6671,-87.9365,0.707,8.09,11111222 
DISL,ioos:station:DISL:MHPA:1,2019-09-07T02:00:00Z,30.6671,-87.9365,0.773,7.88,11111222 
DISL,ioos:station:DISL:MHPA:1,2019-09-07T03:00:00Z,30.6671,-87.9365,0.871,7.69,11111222 
DISL,ioos:station:DISL:MHPA:1,2019-09-07T04:00:00Z,30.6671,-87.9365,0.969,7.46,11111222 
DISL,ioos:station:DISL:MHPA:1,2019-09-07T05:00:00Z,30.6671,-87.9365,1.047,7.26,11111222 
DISL,ioos:station:DISL:MHPA:1,2019-09-07T06:00:00Z,30.6671,-87.9365,1.131,7.12,11111222 
DISL,ioos:station:DISL:MHPA:1,2019-09-07T07:00:00Z,30.6671,-87.9365,1.193,6.8,11111222 
DISL,ioos:station:DISL:MHPA:1,2019-09-07T08:00:00Z,30.6671,-87.9365,1.218,6.78,11111222 
DISL,ioos:station:DISL:MHPA:1,2019-09-07T09:00:00Z,30.6671,-87.9365,1.262,6.6,11111222 
DISL,ioos:station:DISL:MHPA:1,2019-09-07T10:00:00Z,30.6671,-87.9365,1.3,6.32,11111222 
DISL,ioos:station:DISL:MHPA:1,2019-09-07T11:00:00Z,30.6671,-87.9365,1.306,6.12,11111222 
DISL,ioos:station:DISL:MHPA:1,2019-09-07T12:00:00Z,30.6671,-87.9365,1.283,4.76,11111222 
DISL,ioos:station:DISL:MHPA:1,2019-09-07T13:00:00Z,30.6671,-87.9365,1.251,5.44,11111222 
DISL,ioos:station:DISL:MHPA:1,2019-09-07T14:00:00Z,30.6671,-87.9365,1.225,5.6,11111222 
DISL,ioos:station:DISL:MHPA:1,2019-09-07T15:00:00Z,30.6671,-87.9365,1.18,5.51,11111222 
DISL,ioos:station:DISL:MHPA:1,2019-09-07T16:00:00Z,30.6671,-87.9365,1.101,5.61,11111222 
DISL,ioos:station:DISL:MHPA:1,2019-09-07T17:00:00Z,30.6671,-87.9365,1.028,5.94,11111222 
DISL,ioos:station:DISL:MHPA:1,2019-09-07T18:00:00Z,30.6671,-87.9365,1.125,6.84,11111222 
DISL,ioos:station:DISL:MHPA:1,2019-09-07T19:00:00Z,30.6671,-87.9365,0.816,6.11,11111222 
DISL,ioos:station:DISL:MHPA:1,2019-09-07T20:00:00Z,30.6671,-87.9365,0.783,5.87,11111222 
DISL,ioos:station:DISL:MHPA:1,2019-09-07T21:00:00Z,30.6671,-87.9365,0.756,4.88,11111222 
DISL,ioos:station:DISL:MHPA:1,2019-09-07T22:00:00Z,30.6671,-87.9365,0.678,5.86,11111222 
DISL,ioos:station:DISL:MHPA:1,2019-09-07T23:00:00Z,30.6671,-87.9365,0.681,5.75,11111222 
DISL,ioos:station:DISL:MHPA:1,2019-09-08T00:00:00Z,30.6671,-87.9365,0.681,10.16,11133222 
DISL,ioos:station:DISL:MHPA:1,2019-09-08T01:00:00Z,30.6671,-87.9365,0.699,8.31,11111222 
DISL,ioos:station:DISL:MHPA:1,2019-09-08T02:00:00Z,30.6671,-87.9365,0.752,7.78,11111222 
DISL,ioos:station:DISL:MHPA:1,2019-09-08T03:00:00Z,30.6671,-87.9365,0.858,6.65,11111222 
DISL,ioos:station:DISL:MHPA:1,2019-09-08T04:00:00Z,30.6671,-87.9365,0.955,6.26,11111222 
DISL,ioos:station:DISL:MHPA:1,2019-09-08T05:00:00Z,30.6671,-87.9365,1.046,6.09,11111222 
DISL,ioos:station:DISL:MHPA:1,2019-09-08T06:00:00Z,30.6671,-87.9365,1.116,5.83,11111222 
DISL,ioos:station:DISL:MHPA:1,2019-09-08T07:00:00Z,30.6671,-87.9365,1.164,5.58,11111222 
DISL,ioos:station:DISL:MHPA:1,2019-09-08T08:00:00Z,30.6671,-87.9365,1.221,5.63,11111222 
DISL,ioos:station:DISL:MHPA:1,2019-09-08T09:00:00Z,30.6671,-87.9365,1.275,5.38,11111222 
DISL,ioos:station:DISL:MHPA:1,2019-09-08T10:00:00Z,30.6671,-87.9365,1.319,5.48,11111222 
DISL,ioos:station:DISL:MHPA:1,2019-09-08T11:00:00Z,30.6671,-87.9365,1.367,5.29,11111222 
DISL,ioos:station:DISL:MHPA:1,2019-09-08T12:00:00Z,30.6671,-87.9365,1.376,5.42,11111222 
DISL,ioos:station:DISL:MHPA:1,2019-09-08T13:00:00Z,30.6671,-87.9365,1.374,5.44,11111222 
DISL,ioos:station:DISL:MHPA:1,2019-09-08T14:00:00Z,30.6671,-87.9365,1.347,5.37,11111222 
DISL,ioos:station:DISL:MHPA:1,2019-09-08T15:00:00Z,30.6671,-87.9365,1.276,4.93,11111222 
DISL,ioos:station:DISL:MHPA:1,2019-09-08T16:00:00Z,30.6671,-87.9365,1.194,4.59,11111222 
DISL,ioos:station:DISL:MHPA:1,2019-09-08T17:00:00Z,30.6671,-87.9365,1.165,5.63,11111222 
DISL,ioos:station:DISL:MHPA:1,2019-09-08T18:00:00Z,30.6671,-87.9365,1.081,5.93,11111222 
DISL,ioos:station:DISL:MHPA:1,2019-09-08T18:30:00Z,30.6671,-87.9365,1.043,5.2,11111222 
DISL,ioos:station:DISL:MHPA:1,2019-09-08T19:30:00Z,30.6671,-87.9365,0.958,4.73,11111222 
DISL,ioos:station:DISL:MHPA:1,2019-09-08T20:30:00Z,30.6671,-87.9365,0.911,6.03,11111222 
DISL,ioos:station:DISL:MHPA:1,2019-09-08T21:30:00Z,30.6671,-87.9365,0.857,9.55,11111222 
DISL,ioos:station:DISL:MHPA:1,2019-09-08T22:30:00Z,30.6671,-87.9365,0.842,9.1,11111222 
DISL,ioos:station:DISL:MHPA:1,2019-09-08T23:30:00Z,30.6671,-87.9365,0.821,9.15,11111222 
DISL,ioos:station:DISL:MHPA:1,2019-09-09T00:30:00Z,30.6671,-87.9365,0.821,7.8,11111222 
DISL,ioos:station:DISL:MHPA:1,2019-09-09T01:30:00Z,30.6671,-87.9365,0.862,8.05,11111222 
DISL,ioos:station:DISL:MHPA:1,2019-09-09T02:30:00Z,30.6671,-87.9365,0.918,7.6,11111222 
DISL,ioos:station:DISL:MHPA:1,2019-09-09T03:30:00Z,30.6671,-87.9365,0.991,7.63,11111222 
DISL,ioos:station:DISL:MHPA:1,2019-09-09T04:30:00Z,30.6671,-87.9365,1.068,7.01,11111222 
DISL,ioos:station:DISL:MHPA:1,2019-09-09T05:30:00Z,30.6671,-87.9365,1.119,6.6,11111222 
DISL,ioos:station:DISL:MHPA:1,2019-09-09T06:30:00Z,30.6671,-87.9365,1.183,6.07,11111222 
DISL,ioos:station:DISL:MHPA:1,2019-09-09T07:30:00Z,30.6671,-87.9365,1.235,5.06,11111222 
DISL,ioos:station:DISL:MHPA:1,2019-09-09T08:30:00Z,30.6671,-87.9365,1.267,6.08,11111222 
DISL,ioos:station:DISL:MHPA:1,2019-09-09T09:30:00Z,30.6671,-87.9365,1.326,5.12,11111222 
DISL,ioos:station:DISL:MHPA:1,2019-09-09T10:30:00Z,30.6671,-87.9365,1.37,4.89,11111222 
DISL,ioos:station:DISL:MHPA:1,2019-09-09T11:30:00Z,30.6671,-87.9365,1.399,5.04,11111222 
DISL,ioos:station:DISL:MHPA:1,2019-09-09T12:30:00Z,30.6671,-87.9365,1.434,5.36,11111222 
DISL,ioos:station:DISL:MHPA:1,2019-09-09T13:30:00Z,30.6671,-87.9365,1.403,4.43,11111222 
DISL,ioos:station:DISL:MHPA:1,2019-09-09T14:30:00Z,30.6671,-87.9365,1.395,3.96,11111222 
DISL,ioos:station:DISL:MHPA:1,2019-09-09T15:30:00Z,30.6671,-87.9365,1.363,5.3,11111222 
DISL,ioos:station:DISL:MHPA:1,2019-09-09T16:30:00Z,30.6671,-87.9365,1.262,4.52,11111222 
DISL,ioos:station:DISL:MHPA:1,2019-09-09T17:30:00Z,30.6671,-87.9365,1.279,4.52,11111222 
DISL,ioos:station:DISL:MHPA:1,2019-09-09T18:30:00Z,30.6671,-87.9365,1.168,4.71,11111222 
DISL,ioos:station:DISL:MHPA:1,2019-09-09T22:30:00Z,30.6671,-87.9365,0.963,8.38,11111222 
DISL,ioos:station:DISL:MHPA:1,2019-09-09T23:30:00Z,30.6671,-87.9365,0.923,8.08,11111222 
DISL,ioos:station:DISL:MHPA:1,2019-09-10T00:30:00Z,30.6671,-87.9365,0.925,7.88,11111222 
DISL,ioos:station:DISL:MHPA:1,2019-09-10T01:30:00Z,30.6671,-87.9365,0.931,6.69,11111222 
DISL,ioos:station:DISL:MHPA:1,2019-09-10T02:30:00Z,30.6671,-87.9365,0.976,6.36,11111222 
DISL,ioos:station:DISL:MHPA:1,2019-09-10T03:30:00Z,30.6671,-87.9365,1.058,6.2,11111222 
DISL,ioos:station:DISL:MHPA:1,2019-09-10T04:30:00Z,30.6671,-87.9365,1.112,5.47,11111222 
DISL,ioos:station:DISL:MHPA:1,2019-09-10T05:30:00Z,30.6671,-87.9365,1.196,5.39,11111222 
DISL,ioos:station:DISL:MHPA:1,2019-09-10T06:30:00Z,30.6671,-87.9365,1.243,5.54,11111222 
DISL,ioos:station:DISL:MHPA:1,2019-09-10T07:30:00Z,30.6671,-87.9365,1.291,5.59,11111222 
DISL,ioos:station:DISL:MHPA:1,2019-09-10T08:30:00Z,30.6671,-87.9365,1.339,4.93,11111222 
DISL,ioos:station:DISL:MHPA:1,2019-09-10T09:30:00Z,30.6671,-87.9365,1.374,4.38,11111222 
DISL,ioos:station:DISL:MHPA:1,2019-09-10T10:30:00Z,30.6671,-87.9365,1.409,4.57,11111222 
DISL,ioos:station:DISL:MHPA:1,2019-09-10T11:30:00Z,30.6671,-87.9365,1.437,4.47,11111222 
DISL,ioos:station:DISL:MHPA:1,2019-09-10T12:30:00Z,30.6671,-87.9365,1.472,3.84,11111222 
DISL,ioos:station:DISL:MHPA:1,2019-09-10T13:30:00Z,30.6671,-87.9365,1.49,3.94,11111222 
DISL,ioos:station:DISL:MHPA:1,2019-09-10T14:30:00Z,30.6671,-87.9365,1.488,4.03,11111222 
DISL,ioos:station:DISL:MHPA:1,2019-09-10T15:30:00Z,30.6671,-87.9365,1.497,4.75,11111222 
DISL,ioos:station:DISL:MHPA:1,2019-09-10T16:30:00Z,30.6671,-87.9365,1.466,6.06,11111222 
DISL,ioos:station:DISL:MHPA:1,2019-09-10T17:30:00Z,30.6671,-87.9365,1.426,5.01,11111222 
DISL,ioos:station:DISL:MHPA:1,2019-09-10T18:30:00Z,30.6671,-87.9365,1.335,3.37,11111222 
DISL,ioos:station:DISL:MHPA:1,2019-09-10T19:30:00Z,30.6671,-87.9365,1.27,6.67,11111222 
DISL,ioos:station:DISL:MHPA:1,2019-09-10T20:30:00Z,30.6671,-87.9365,1.22,7.88,11111222 
DISL,ioos:station:DISL:MHPA:1,2019-09-10T21:30:00Z,30.6671,-87.9365,1.165,8.28,11111222 
DISL,ioos:station:DISL:MHPA:1,2019-09-10T22:30:00Z,30.6671,-87.9365,1.077,8.44,11111222 
DISL,ioos:station:DISL:MHPA:1,2019-09-10T23:30:00Z,30.6671,-87.9365,1.028,7.42,11111222 
DISL,ioos:station:DISL:MHPA:1,2019-09-11T00:30:00Z,30.6671,-87.9365,1.002,7.4,11111222 
DISL,ioos:station:DISL:MHPA:1,2019-09-11T01:30:00Z,30.6671,-87.9365,0.983,6.17,11111222 
DISL,ioos:station:DISL:MHPA:1,2019-09-11T02:30:00Z,30.6671,-87.9365,0.981,6.19,11111222 
DISL,ioos:station:DISL:MHPA:1,2019-09-11T03:30:00Z,30.6671,-87.9365,1.018,6.46,11111222 
DISL,ioos:station:DISL:MHPA:1,2019-09-11T04:30:00Z,30.6671,-87.9365,1.054,6.37,11111222 
DISL,ioos:station:DISL:MHPA:1,2019-09-11T05:30:00Z,30.6671,-87.9365,1.112,6.32,11111222 
DISL,ioos:station:DISL:MHPA:1,2019-09-11T06:30:00Z,30.6671,-87.9365,1.187,5.98,11111222 
DISL,ioos:station:DISL:MHPA:1,2019-09-11T07:30:00Z,30.6671,-87.9365,1.237,5.2,11111222 
DISL,ioos:station:DISL:MHPA:1,2019-09-11T08:30:00Z,30.6671,-87.9365,1.284,3.87,11111222 
DISL,ioos:station:DISL:MHPA:1,2019-09-11T09:30:00Z,30.6671,-87.9365,1.315,3.67,11111222 
DISL,ioos:station:DISL:MHPA:1,2019-09-11T10:30:00Z,30.6671,-87.9365,1.331,3.7,11111222 
DISL,ioos:station:DISL:MHPA:1,2019-09-11T11:30:00Z,30.6671,-87.9365,1.366,4.0,11111222 
DISL,ioos:station:DISL:MHPA:1,2019-09-11T12:30:00Z,30.6671,-87.9365,1.387,3.91,11111222 
DISL,ioos:station:DISL:MHPA:1,2019-09-11T13:30:00Z,30.6671,-87.9365,1.446,4.22,11111222 
DISL,ioos:station:DISL:MHPA:1,2019-09-11T14:30:00Z,30.6671,-87.9365,1.476,3.94,11111222 
DISL,ioos:station:DISL:MHPA:1,2019-09-11T15:30:00Z,30.6671,-87.9365,1.485,4.18,11111222 
DISL,ioos:station:DISL:MHPA:1,2019-09-11T16:30:00Z,30.6671,-87.9365,1.502,5.92,11111222 
DISL,ioos:station:DISL:MHPA:1,2019-09-11T17:30:00Z,30.6671,-87.9365,1.432,4.56,11111222 
DISL,ioos:station:DISL:MHPA:1,2019-09-11T18:30:00Z,30.6671,-87.9365,1.377,3.52,11111222 
DISL,ioos:station:DISL:MHPA:1,2019-09-11T19:30:00Z,30.6671,-87.9365,1.333,3.35,11111222 
DISL,ioos:station:DISL:MHPA:1,2019-09-11T20:30:00Z,30.6671,-87.9365,1.232,4.44,11111222 
DISL,ioos:station:DISL:MHPA:1,2019-09-11T21:30:00Z,30.6671,-87.9365,1.142,8.49,11111222 
DISL,ioos:station:DISL:MHPA:1,2019-09-11T22:30:00Z,30.6671,-87.9365,1.125,6.75,11111222 
DISL,ioos:station:DISL:MHPA:1,2019-09-11T23:30:00Z,30.6671,-87.9365,1.091,9.24,11111222 
DISL,ioos:station:DISL:MHPA:1,2019-09-12T00:30:00Z,30.6671,-87.9365,1.057,7.74,11111222 
DISL,ioos:station:DISL:MHPA:1,2019-09-12T01:30:00Z,30.6671,-87.9365,1.059,7.25,11111222 
DISL,ioos:station:DISL:MHPA:1,2019-09-12T02:30:00Z,30.6671,-87.9365,1.071,6.2,11111222 
DISL,ioos:station:DISL:MHPA:1,2019-09-12T03:30:00Z,30.6671,-87.9365,1.121,5.61,11111222 
DISL,ioos:station:DISL:MHPA:1,2019-09-12T04:30:00Z,30.6671,-87.9365,1.155,5.64,11111222 
DISL,ioos:station:DISL:MHPA:1,2019-09-12T05:30:00Z,30.6671,-87.9365,1.19,5.28,11111222 
DISL,ioos:station:DISL:MHPA:1,2019-09-12T06:30:00Z,30.6671,-87.9365,1.226,4.92,11111222 
DISL,ioos:station:DISL:MHPA:1,2019-09-12T07:30:00Z,30.6671,-87.9365,1.248,4.94,11111222 
DISL,ioos:station:DISL:MHPA:1,2019-09-12T08:30:00Z,30.6671,-87.9365,1.283,4.96,11111222 
DISL,ioos:station:DISL:MHPA:1,2019-09-12T09:30:00Z,30.6671,-87.9365,1.286,4.68,11111222 
DISL,ioos:station:DISL:MHPA:1,2019-09-12T10:30:00Z,30.6671,-87.9365,1.295,4.88,11111222 